星链-5246 (STARLINK-5246 )

导读

STARLINK-5246是美国SpaceX公司星链(Starlink)卫星互联网项目中的一颗卫星,于2022年10月28日发射入轨,属于星链低轨通信星座组网卫星。作为星链量产卫星,它采用平板设计、氪工质霍尔推进器,支持自主避轨,寿命末期可主动离轨坠入大气层烧毁,服务于全球高速低延迟宽带互联网接入。

Basic Information
目录编号:
54198
目录名称:
STARLINK-5246
国际标识:
2022-141AT
轨道中心:
EARTH
卫星名称:
星链-5246
卫星全名:
星链-5246 (STARLINK-5246 )
卫星状态:
在轨 (已飞行1326 天)
发射日期:
2022-10-28 UTC
国别 :
美国 (US)
星等 :
--
Orbit Information
数据来源 国际轨道数据 AOE轨道数据
星历时间 2026-06-14T22:56:25+0800
16小时前
查看轨道信息
2026-06-10T07:00:00+0800
5天前
查看轨道信息
半长轴 6917.893km 6917.9km
偏心率 0.000123 0.000129
轨道倾角 53.160° 53.160°
近地点辐角 98.263° 83.354°
升交点赤经 278.738° 299.703°
平近点角 261.850° 127.985°
近地点 538.905km 538.87km
远地点 540.607km 540.656km
周期 95.438分钟 95.438分钟
每日圈数 15.088361 15.088337
Detailed Information
固有亮度:
5
最大亮度:
2.5
卫星平台:
Starlink v1.5
覆盖范围:
全球
运营商:
太空探索技术公司
运营商所在国:
美国
制造商(研发单位):
太空探索技术公司
制造商所在国:
美国
使用方式:
暂无
Satellite Introduction
星链(Starlink)计划是由太空探索技术公司(SpaceX)提出的一个巨型低轨卫星互联网星座项目,计划在2019年至2024年间在太空搭建由约1.2万颗卫星组成的“星链”网络,其中1584颗将部署在地球上空550千米处的近地轨道,并从2020年开始工作。该卫星仍在工作。
2D Orbit Map
3D Orbit Map
Orbit Altitude Analysis Chart
Orbit Inclination Analysis Chart
Orbit Comprehensive Analysis Chart
View Comprehensive Chart